Home > Weather > Taiohae > Past weeks

Flag for French Polynesia Past Weather in Taiohae, Marquesas Islands, French Polynesia — Yesterday and Last 2 Weeks

Now
77 °F

Warm.


Feels Like: 79 °F
Forecast: 75 / 83 °F
Wind: 1 mph from Northwest

Location: Atuona

Current Time: Jun 28, 2016 at 8:11:01 PM

Latest Report: Jun 28, 2016 at 6:30 PM


Visibility: N/A

Pressure: 29.85 "Hg

Humidity: 80%

Dew Point: 71 °F

Location of TaiohaeLocation

Past Weather in Taiohae — Graph

°F

Taiohae Temperature Yesterday

Maximum temperature yesterday: 87 °F (at 12:30 PM)
Minimum temperature yesterday: 75 °F (at 5:30 AM)
Average temperature yesterday: 79 °F

High & Low Weather Summary for the Past Weeks

 TemperatureHumidityPressure
High89 °F (Jun 16, 11:30 AM)88% (Jun 19, 8:30 PM)29.98 "Hg (Jun 19, 8:30 PM)
Low74 °F (Jun 14, 5:30 AM)52% (Jun 28, 1:30 PM)29.78 "Hg (Jun 27, 3:30 PM)
Average80 °F75%29.88 "Hg
* Reported Jun 13 6:30 PM — Jun 28 6:30 PM, Taiohae, Weather by CustomWeather, © 2016

Note: Actual official high and low records may vary slightly from our data, if they occured in-between our weather recording intervals... More about our weather records

Advertising

Taiohae Weather History for the Previous 24 Hours

Scroll right to see more
 ConditionsComfort  
Time TempWeatherWind HumidityBarometerVisibility
6:30 PM
Tue, Jun 28
77 °FWarm.1 mph80%29.85 "HgN/A
5:30 PM80 °FWarm.2 mph76%29.83 "HgN/A
4:30 PM82 °FPartly sunny.8 mph71%29.81 "Hg25 mi
3:30 PM83 °FOvercast.8 mph67%29.81 "Hg25 mi
2:30 PM84 °FOvercast.9 mph60%29.81 "Hg25 mi
1:30 PM87 °FOvercast.3 mph52%29.82 "Hg25 mi
12:30 PM87 °FWarm.3 mph59%29.83 "HgN/A
11:30 AM87 °FOvercast.10 mph61%29.85 "Hg25 mi
10:30 AM88 °FPartly sunny.5 mph60%29.88 "Hg25 mi
9:30 AM87 °FPassing clouds.5 mph59%29.91 "Hg25 mi
8:30 AM85 °FPassing clouds.3 mph62%29.91 "Hg25 mi
6:30 AM75 °FPassing clouds.2 mph85%29.89 "Hg19 mi
5:30 AM75 °FMild.3 mph84%29.88 "HgN/A
4:30 AM75 °FMild.6 mph83%29.87 "HgN/A
3:30 AM75 °FMild.1 mph85%29.86 "HgN/A
2:30 AM74 °FMild.No wind84%29.85 "HgN/A
1:30 AM74 °FMild.1 mph85%29.87 "HgN/A
12:30 AM75 °FMild.3 mph83%29.88 "HgN/A
11:30 PM
Mon, Jun 27
75 °FMild.1 mph82%29.89 "HgN/A
10:30 PM75 °FMild.2 mph82%29.89 "HgN/A
9:30 PM75 °FMild.3 mph81%29.88 "HgN/A
8:30 PM76 °FMild.2 mph81%29.87 "HgN/A
Weather by CustomWeather, © 2016

See weather overviewHow to use our weather pages